Regional Weather Roundup
Issued by NWS

Home | Current Version | Previous Version | Graphics & Text | Print | Product List | Glossary On
Versions: 1 2 3 4 5 6 7 8 9 10 11 12 13 14 15 16 17 18 19 20 21 22 23 24 25 26 27 28 29 30 31 32 33 34 35 36 37 38 39 40 41 42 43 44 45 46 47 48 49 50
000
ASUS45 KBOU 290607
RWRCO

WEATHER ROUNDUP FOR COLORADO
NATIONAL WEATHER SERVICE DENVER/BOULDER CO
1200 AM MDT SUN MAY 29 2016

NOTE: "FAIR" INDICATES FEW OR NO CLOUDS BELOW 12000 FEET WITH NO
SIGNIFICANT WEATHER AND/OR OBSTRUCTIONS TO VISIBILITY.

COZ001>005-013-030-031-290700-
...NORTHWEST COLORADO...

CITY           SKY/WX    TMP DP  RH WIND       PRES   REMARKS
CRAIG          FAIR      41  36  82 SW3       30.20S
HAYDEN         FAIR      45  36  70 E9        30.22R
MEEKER         FAIR      45  37  73 NE8       30.20S
MOUNT WERNER   NOT AVBL
STEAMBOAT SPGS FAIR      45  37  72 CALM      30.24R
WALDEN         NOT AVBL
$$

COZ006>008-011-290700-
...WEST CENTRAL VALLEYS...

CITY           SKY/WX    TMP DP  RH WIND       PRES   REMARKS
GRAND JUNCTION FAIR      57  34  41 E7        30.09F
MONTROSE       FAIR      55  35  47 SE7       30.18R
EAGLE          FAIR      46  37  71 CALM      30.27R
RIFLE          FAIR      50  35  56 SE7       30.18R
DELTA          FAIR      62  34  35 NE7       30.13S
NUCLA          FAIR      54  30  40 E7        30.19S
$$

COZ017>023-064>068-290700-
...SOUTHWEST COLORADO...

CITY           SKY/WX    TMP DP  RH WIND       PRES   REMARKS
DURANGO        FAIR      48  32  53 NW3       30.18S
CORTEZ         FAIR      50  32  50 CALM      30.14R
PAGOSA SPRINGS FAIR      42  31  64 CALM      30.26S
TELLURIDE      FAIR      44  30  59 SE8       30.34S
WOLF CREEK PAS FAIR      36  19  51 CALM      30.51S
$$

COZ009-010-012-014-032>034-037-058>063-290700-
...CENTRAL COLORADO...

CITY           SKY/WX    TMP DP  RH WIND       PRES   REMARKS
ASPEN          MOCLDY    40  31  70 S6        30.28S
BUENA VISTA    FAIR      44  29  55 W9        30.30R
COPPER MTN     NOT AVBL
BERTHOUD PASS  FAIR      28  19  69 NW12      30.47S WCI  18
COTTONWOOD PAS FAIR      46  28  49 SW7       30.38R
GUNNISON       FAIR      45  28  53 N8        30.30R
KREMMLING      FAIR      37  34  87 SE3       30.30R
LEADVILLE      FAIR      30  24  78 E6        30.37S WCI  24
MONARCH PASS   FAIR      36  23  60 SW9G16    30.57S
SALIDA         FAIR      51  34  51 W5        30.35R
SUNLIGHT       FAIR      43  28  56 CALM      30.44S
WILKERSON PASS FAIR      37  25  60 CALM      30.48R
$$

COZ069>075-290700-
...SAN LUIS VALLEY/SANGRE DE CRISTO MOUNTAINS...

CITY           SKY/WX    TMP DP  RH WIND       PRES   REMARKS
ALAMOSA        FAIR      46  38  73 NW5       30.27S
LA VETA PASS   MOCLDY    43  28  56 CALM      30.41S
SAGUACHE       FAIR      46  34  61 NW10      30.29S
$$

COZ035-036-038>040-290700-
...NORTHERN COLORADO FRONT RANGE...

CITY           SKY/WX    TMP DP  RH WIND       PRES   REMARKS
DENVER INTL AP FAIR      50  43  77 S8        30.14S
DMNS CITY PARK   N/A     55  44  66 SW5       30.15S
AURORA         PTCLDY    52  43  70 S8        30.17R
FRONT RANGE AP NOT AVBL
ERIE MUNI ARPT FAIR      49  43  80 S5        30.14S
BOULDER MUN AP FAIR      55  37  50 CALM      30.14S
CENTENNIAL     FAIR      49  42  77 S3        30.18R
BROOMFIELD     FAIR      52  37  58 W9        30.16S
FORT COLLINS   FAIR      54  45  71 S3        30.14R
LONGMONT       FAIR      48  42  77 CALM      30.16R
$$

COZ041-046-047-076>085-087-088-290700-
...PIKES PEAK/PALMER DIVIDE AND SOUTHERN FOOTHILLS...

CITY           SKY/WX    TMP DP  RH WIND       PRES   REMARKS
COLO. SPRINGS  FAIR      50  41  71 N6        30.22R
A. F. ACADEMY  FAIR      45  37  76 N7        30.23R
SCHRIEVER AFB  NOT AVBL
ELLICOTT       FAIR       1 N/A N/A E9        30.20R WCI -14
FALCON         FAIR      46  39  77 W5        30.25R
FORT CARSON    FAIR      50  40  69 NW7       30.18S
LIMON          FAIR      49  44  83 S6        30.18R
MONUMENT HILL  FAIR      43  37  81 S7        30.25S
TRINIDAD       FAIR      50  40  68 W8        30.17R
$$

COZ042>045-048>051-090-091-290700-
...NORTHEAST COLORADO...

CITY           SKY/WX    TMP DP  RH WIND       PRES   REMARKS
GREELEY ARPT   FAIR      52  46  82 CALM      30.13R
AKRON          FAIR      57  43  59 S13       30.12S
BURLINGTON     CLOUDY    58  48  69 W15       30.15R
WRAY           NOT AVBL
STERLING       FAIR      52  46  82 CALM      30.09R
HOLYOKE        NOT AVBL
FORT MORGAN    FAIR      52  43  72 SW5       30.12R
$$

COZ086-089-092>099-290700-
...SOUTHEAST COLORADO...

CITY           SKY/WX    TMP DP  RH WIND       PRES   REMARKS
PUEBLO         FAIR      56  49  77 SW6       30.14R
LA JUNTA       FAIR      63  49  60 SE5       30.10R
LAMAR          FAIR      60  48  64 NE6       30.07R
SPRINGFIELD      N/A     58  47  66 CALM      30.14R
$$



USA.gov is the U.S. government's official web portal to all federal, state and local government web resources and services.